{"data":{"norad_id":45608,"intl_designator":"2020-031A","name":"COSMOS 2546 (EKS 4)","alt_names":[],"object_type":"PAYLOAD","status":"ACTIVE","operator":null,"country":"CIS","launch_date":"2020-05-22","launch_site_code":"PLMSC","launch_vehicle":null,"mission":null,"orbit_class":"UNKNOWN","rcs_meters":null,"size_class":null,"mass_kg":null,"dimensions":null,"purposes":[],"wikipedia_slug":null,"has_3d_model":false,"image_url":null,"decayed_at":null,"tle_current":{"epoch":"2026-08-31T07:05:39.834816Z","epoch_age_seconds":1767714,"freshness":"OLD","line1":"1 45608U 20031A   26243.29559994 -.00000360  00000+0  00000+0 0  9996","line2":"2 45608  63.1638  56.8572 7115327 266.6524  17.3178  2.00576418 45977","mean_motion":2.00576418,"eccentricity":0.7115327,"inclination_deg":63.1638,"raan_deg":56.8572,"arg_perigee_deg":266.6524,"mean_anomaly_deg":17.3178,"bstar":0,"rev_number":4597,"period_min":717.93085865159,"perigee_km":1283.3284983302,"apogee_km":39078.830671254,"semimajor_km":26559.216584792,"source":"CELESTRAK","updated_at":"2026-09-20T09:00:14.700278Z"}}}